Wind_Speed
4 3 7 5 6 6 7 8 10 3 6 5 5 6 8 8 5 7 6 4 2 7 7 25 31 33 32 28 23 20 16 21 21 18 18 14 12 12 11 10 9 8 7 6
2 7 8 10 14 16 13 6 4 4 6 5 7 9 9 7 3 6 7 6 0 3 7 15 28 31 32 28 23 22 19 19 18 17 15 12 15 16 16 15 14 13 13 11
5 7 11 9 15 17 15 8 6 7 3 3 5 6 6 2 5 6 5 5 5 4 8 7 18 28 28 27 26 24 21 21 21 17 15 11 9 7 12 15 16 16 14 13
6 5 13 14 11 10 11 5 8 13 8 5 6 4 5 7 6 5 6 7 5 5 1 7 12 21 24 20 22 23 23 24 21 18 17 15 12 10 10 11 14 15 14 14
4 5 3 5 3 2 4 5 9 8 6 5 3 3 6 7 5 4 5 6 5 5 2 8 12 24 23 20 20 17 21 22 21 20 20 18 13 11 10 8 9 12 13 14
2 3 2 3 1 4 7 7 8 5 4 1 8 6 3 4 6 4 3 3 5 7 5 8 20 24 21 18 19 16 12 9 13 17 16 15 13 13 14 13 7 7 10 9
6 2 3 3 6 5 6 6 3 2 1 5 4 5 5 5 6 8 8 5 6 7 8 8 8 11 14 14 13 10 7 5 1 2 7 11 13 12 13 9 7 4 4 6
3 1 4 2 4 5 4 6 5 6 5 4 3 4 4 5 7 8 8 7 7 8 7 8 9 11 11 9 5 2 1 3 6 7 2 1 4 5 7 7 7 6 9 12
1 1 2 5 3 4 4 2 4 3 1 4 3 3 4 5 7 7 8 8 7 8 8 8 14 19 18 16 15 14 10 7 5 4 2 2 3 1 3 4 6 10 12 13
3 3 2 2 2 2 2 3 3 2 2 3 2 4 4 8 7 7 7 8 7 7 8 8 12 15 13 11 9 7 6 6 4 3 4 4 6 7 7 5 8 11 14 16
2 3 3 3 2 5 1 1 1 3 4 4 1 4 6 10 11 11 9 8 8 8 7 7 10 11 10 8 6 5 3 2 3 4 5 5 8 9 10 11 11 11 13 17
5 2 2 2 0 0 1 3 5 4 4 1 4 5 5 11 11 12 9 8 7 8 8 7 9 8 9 8 4 1 2 5 7 7 5 3 4 7 10 12 12 16 20 21
4 2 2 5 5 4 1 3 3 3 3 1 4 4 3 8 8 8 10 8 8 8 7 6 9 10 10 10 9 8 7 6 2 2 2 4 7 10 11 11 16 20 21 24
2 2 4 5 3 3 3 4 4 5 4 2 4 5 4 6 9 8 8 9 9 8 8 6 6 8 8 7 7 8 7 7 4 3 3 8 9 8 13 17 19 20 20 22
3 1 2 1 2 2 1 4 5 5 5 4 3 5 8 9 10 11 11 9 9 9 8 6 5 5 6 5 5 6 8 6 5 5 7 7 10 13 17 16 17 19 21 24
1 1 2 1 2 0 2 4 5 4 4 4 2 3 1 3 6 6 8 9 8 8 7 7 6 6 5 4 5 5 5 6 8 9 11 11 14 16 13 16 20 22 23 25
3 2 2 1 2 2 5 5 5 4 2 5 3 4 4 4 7 6 7 7 10 8 7 6 5 6 5 4 4 4 3 7 11 13 12 14 15 12 17 21 22 24 25 25
1 2 2 2 3 1 3 1 2 6 4 6 7 6 5 5 5 7 4 8 8 7 6 6 7 8 7 6 5 4 4 6 10 13 15 14 12 19 22 23 25 26 25 26
3 2 2 3 2 5 3 3 1 2 2 4 7 7 6 6 5 6 4 6 7 7 9 9 8 8 9 8 5 3 5 8 11 15 14 12 16 20 24 25 27 25 25 18
2 4 4 2 3 6 4 2 2 3 3 2 7 8 7 6 3 4 5 6 8 13 11 8 6 5 6 8 9 7 9 10 12 14 11 14 19 22 24 25 23 23 14 23
2 2 4 2 2 7 4 4 2 5 6 3 5 7 8 5 4 6 7 7 11 10 7 4 3 5 8 10 12 14 16 14 13 10 13 16 20 22 21 23 20 16 25 26
6 5 4 2 1 6 6 3 6 5 2 4 4 3 6 9 7 8 7 7 8 6 3 1 2 6 8 10 11 12 13 14 12 12 13 16 20 20 22 16 16 25 24 25
1 6 4 7 6 5 7 4 3 4 4 3 6 5 8 9 7 7 6 6 6 5 2 2 6 8 8 9 10 13 16 16 12 10 13 17 19 21 16 15 23 27 24 20
2 4 3 3 4 6 9 3 5 4 4 4 6 8 7 8 7 7 6 4 3 1 3 5 7 9 12 12 9 12 14 12 10 12 14 17 19 18 15 18 26 24 20 18
5 4 4 4 6 0 5 7 8 7 7 8 6 6 7 8 7 6 5 3 1 3 5 8 11 12 12 10 12 13 13 12 11 11 15 18 19 18 15 20 24 21 20 19
5 7 5 6 7 5 4 7 9 8 7 9 8 6 6 8 7 6 3 1 2 4 9 11 8 10 13 14 16 16 13 11 11 13 16 18 17 14 18 23 21 18 18 21
Wind_Direction
220 135 201 194 151 187 184 188 191 140 170 120 223 256 240 236 239 225 170 294 314 235 207 152 142 147 149 154 156 160 158 159 159 164 166 174 185 188 187 184 189 195 209 234
82 209 222 185 192 208 228 193 132 12 133 140 195 230 228 233 212 168 145 123 355 12 149 144 142 147 152 155 157 160 170 173 178 181 185 202 206 210 213 212 219 230 232 241
165 217 224 219 207 210 226 189 188 169 180 350 112 298 260 245 130 135 102 100 38 2 155 167 149 152 151 159 164 169 182 188 187 188 197 191 171 174 194 208 214 229 247 247
216 269 225 220 249 215 219 221 147 137 126 198 155 251 297 168 138 100 86 56 19 15 131 177 147 151 157 159 171 180 186 185 192 195 203 211 223 226 234 250 256 248 241 239
248 257 200 191 176 104 216 87 139 144 154 109 201 102 268 126 123 127 72 53 5 349 48 165 153 159 161 167 174 174 190 196 202 205 209 218 224 238 259 275 254 235 225 234
154 228 323 102 152 161 153 77 42 56 99 29 221 151 268 213 165 135 86 68 26 357 50 124 157 160 163 167 176 183 177 181 212 215 217 225 232 244 253 263 280 264 251 246
264 344 90 102 89 358 78 85 47 31 46 220 279 148 229 163 151 152 140 119 65 49 69 86 94 117 151 144 144 153 177 196 201 243 240 240 248 241 244 244 266 266 267 286
127 331 12 251 156 175 156 148 151 175 184 225 356 171 235 165 121 130 120 114 84 71 80 86 97 101 103 99 101 126 173 253 266 272 338 312 227 237 251 264 263 283 299 302
273 325 331 52 18 107 237 178 195 116 285 93 179 65 12 128 122 111 124 112 108 97 83 82 83 86 86 83 79 81 86 93 77 82 67 70 65 31 319 303 297 298 299 299
258 84 352 268 30 30 168 194 78 358 201 217 195 165 209 180 168 155 134 135 126 108 97 89 88 91 90 88 82 74 65 55 29 328 323 352 346 343 343 337 329 320 315 313
305 119 275 67 198 197 356 38 76 129 149 170 164 261 205 177 171 161 162 158 151 140 133 127 127 131 134 132 123 120 137 224 240 243 258 297 321 325 324 323 327 325 320 316
1 98 152 217 258 109 216 204 147 121 268 207 136 253 292 180 169 156 165 150 141 139 141 151 150 130 112 104 105 163 233 249 249 247 251 275 308 324 327 323 317 315 314 312
354 260 76 348 350 349 223 211 132 119 89 215 123 251 8 94 118 151 141 146 138 135 142 104 101 90 75 56 45 38 23 24 314 227 334 327 324 317 312 316 316 314 313 312
194 270 156 184 197 169 215 208 179 121 109 212 209 168 181 153 144 163 161 159 158 162 150 139 113 92 70 52 28 11 11 359 17 13 349 337 329 330 323 320 317 313 314 314
132 85 54 130 91 27 358 181 180 189 191 148 190 172 210 195 190 183 179 164 155 171 131 125 118 99 75 46 21 9 4 1 353 349 349 348 331 327 322 317 318 318 318 318
13 248 5 182 133 235 282 264 216 225 245 267 129 132 353 288 123 150 168 160 169 122 135 124 101 87 65 30 13 1 0 12 5 353 337 327 326 321 320 322 321 320 320 319
140 115 73 266 261 322 304 230 220 206 170 156 204 209 145 75 106 152 167 163 133 138 124 108 100 87 49 17 355 348 358 343 336 329 322 319 318 321 323 323 322 320 317 316
134 93 99 204 20 260 252 39 247 220 170 125 110 142 125 141 76 58 94 121 113 114 106 90 76 43 15 349 316 285 297 319 319 315 312 312 318 322 323 321 319 315 314 313
58 99 93 119 203 297 268 264 206 132 237 181 156 159 137 118 94 37 62 109 124 110 92 78 50 15 351 344 336 287 300 313 312 310 313 317 323 323 322 318 315 315 314 321
38 78 114 114 142 219 256 187 108 70 298 281 144 170 156 127 155 228 155 114 94 91 84 68 22 349 330 331 332 311 298 291 299 308 308 317 323 321 315 315 318 321 325 323
77 25 165 183 225 285 246 163 47 90 235 153 138 169 160 169 194 152 126 95 101 95 77 56 11 354 346 335 322 309 305 292 300 298 307 317 320 318 318 318 322 326 329 327
164 143 203 125 132 282 158 86 168 212 124 133 79 92 104 120 121 117 118 116 116 116 116 96 2 326 322 330 329 325 315 311 296 297 307 318 323 322 320 321 327 332 331 327
218 181 186 172 214 234 197 167 173 161 143 129 115 127 129 131 131 130 124 120 131 153 192 280 294 295 301 313 313 312 319 311 296 301 315 323 324 325 326 329 334 332 327 314
258 173 179 64 249 205 199 152 162 137 131 126 117 134 137 128 134 119 114 123 129 274 303 313 325 318 309 309 321 329 326 318 305 313 321 326 327 328 331 333 335 327 316 308
201 129 182 263 277 73 249 197 168 143 117 110 123 117 125 121 117 123 125 143 175 332 335 332 320 316 321 327 329 331 325 317 314 318 325 328 327 328 329 334 330 320 314 313
189 188 162 224 220 171 233 190 150 139 142 143 123 107 112 120 127 127 155 148 343 316 320 320 331 331 331 329 325 317 317 315 316 324 329 329 329 342 339 334 326 325 326 328
Height
754 769 777 770 768 771 775 784 788 786 782 790 802 796 790 779 778 780 776 785 788 789 784 784 788 792 798 803 808 813 818 822 824 827 829 831 832 833 834 834 835 835 836 837
767 777 763 758 762 768 772 781 790 789 779 788 797 794 781 777 775 777 778 782 783 787 787 787 789 792 796 801 806 811 817 821 823 826 828 829 829 830 831 832 832 832 833 834
774 762 754 760 760 769 770 781 794 789 789 784 790 800 787 776 777 777 778 779 782 784 786 787 788 790 795 801 805 810 815 818 820 823 826 827 828 828 829 830 829 829 830 830
770 756 755 760 762 756 773 758 763 780 795 813 790 825 791 786 786 787 786 785 784 784 784 785 788 792 795 800 804 809 812 815 817 820 822 824 825 826 827 827 827 826 827 827
765 760 756 757 755 754 769 756 768 775 789 798 797 817 803 788 796 792 790 787 785 783 782 785 788 792 795 799 803 807 810 813 815 817 819 821 822 824 825 825 824 824 825 825
761 750 753 754 754 753 757 767 779 784 797 818 798 806 807 798 795 795 792 789 786 784 781 784 789 792 795 799 803 806 810 813 815 817 818 819 820 821 822 822 822 823 823 822
768 761 752 757 765 762 765 785 818 821 824 823 787 803 795 791 788 792 794 792 790 789 788 790 793 795 798 800 803 806 809 812 815 817 818 817 817 817 818 819 819 820 820 820
780 782 762 756 766 769 773 782 808 811 824 807 777 804 798 787 787 789 790 792 793 794 794 795 797 799 801 803 805 807 809 812 813 814 815 815 816 816 817 817 817 818 818 818
781 779 761 760 760 764 771 782 772 788 781 807 800 798 792 789 791 794 796 795 796 797 798 799 800 801 803 805 807 808 810 812 813 813 813 813 814 814 815 815 816 816 816 815
774 784 766 763 757 759 765 765 788 796 799 802 796 806 804 798 797 796 799 799 798 798 800 801 802 804 806 807 808 809 810 811 812 813 813 813 814 814 814 814 814 814 813 812
765 774 781 766 772 774 775 776 774 783 793 806 810 807 782 789 789 794 797 797 798 800 802 803 804 806 807 809 810 811 811 811 811 811 811 812 813 813 813 812 810 810 810 809
769 777 787 776 767 763 765 768 775 801 791 793 809 810 778 779 782 786 794 794 797 799 802 804 806 808 809 810 810 810 810 810 810 810 810 809 810 810 810 809 809 807 805 804
777 781 795 788 780 771 770 765 765 778 794 794 813 804 778 781 786 788 793 795 797 800 803 805 807 808 809 810 810 811 811 810 809 809 809 809 808 807 807 806 805 804 801 800
777 778 783 795 778 775 775 766 765 780 805 798 799 793 785 785 787 790 792 793 796 798 801 805 806 807 808 810 810 810 810 809 809 808 807 806 805 805 804 803 801 799 798 795
776 779 770 769 766 765 766 766 768 774 780 788 783 784 784 783 783 784 786 791 795 797 800 804 805 805 807 808 809 809 808 807 807 806 806 804 804 802 801 799 797 796 793 791
773 781 771 771 768 768 772 768 770 773 772 774 775 780 774 775 780 785 786 789 792 798 801 802 804 805 806 807 808 808 807 807 806 804 803 802 800 799 797 795 794 791 789 786
776 780 788 785 771 773 785 774 770 767 762 769 781 778 777 779 781 784 786 787 794 798 801 803 804 805 806 806 806 807 806 805 804 804 801 800 797 796 794 792 789 786 783 780
774 778 789 807 786 796 770 766 766 768 763 770 776 777 777 778 783 787 784 791 797 799 801 803 804 804 805 805 805 804 803 802 802 800 799 797 795 793 790 788 785 782 778 775
778 782 794 804 804 784 772 768 768 766 769 765 774 777 778 781 785 796 794 793 795 798 800 802 804 805 805 804 803 801 800 800 799 797 795 793 792 790 787 784 780 777 773 770
776 781 791 802 811 808 773 767 762 767 791 764 768 775 779 782 798 801 794 794 797 798 800 801 803 803 802 801 800 800 798 795 794 794 793 791 789 787 784 780 776 773 770 767
789 794 802 805 817 793 770 766 765 790 793 763 764 771 778 782 787 789 792 795 796 798 800 801 801 802 801 800 799 797 796 793 791 790 789 788 786 783 780 776 773 770 766 762
788 808 807 804 805 799 767 769 777 772 764 764 766 770 778 784 786 790 793 795 797 799 799 800 800 801 800 798 796 794 792 791 788 787 785 784 782 780 776 772 770 766 762 758
786 777 787 789 786 765 764 761 762 762 765 765 770 775 778 783 787 791 794 796 797 797 798 798 798 797 796 795 793 791 789 787 785 784 782 780 779 776 773 770 766 762 758 754
764 765 773 774 760 760 759 759 760 760 764 766 771 775 777 784 788 791 794 796 796 797 797 796 796 795 793 791 790 788 786 784 783 781 779 777 775 773 770 768 764 759 755 750
767 764 768 772 761 755 755 756 758 762 765 769 771 774 780 784 789 791 794 794 795 795 795 795 794 792 792 790 788 786 783 782 780 778 777 775 773 770 767 765 761 757 753 748
759 758 770 767 752 753 753 751 756 762 766 769 773 778 781 783 788 790 792 793 793 793 793 792 792 790 788 787 784 783 781 779 778 776 774 772 770 767 765 761 757 754 750 745